Location: Waco, TX
(31.5480°N, 97.1670°W)
Time: 01:27:27
(UTC-05:00)

ISS - Pass Details

Date: 14 October 2018
Orbit: 403 x 408 km, 51.6° (Epoch: 21 October)

Event Time Altitude Azimuth Distance (km) Brightness Sun altitude
Rises 11:42:24 0° 236° (WSW) 2,311 0.0 44.5°
Reaches altitude 10° 11:44:32 10° 243° (WSW) 1,456 -0.9 44.7°
Maximum altitude 11:47:41 45° 318° (NW) 561 -3.0 45.0°
Drops below altitude 10° 11:50:51 10° 33° (NNE) 1,466 -1.1 45.4°
Sets 11:53:00 0° 39° (NE) 2,330 -0.1 45.6°
